EW8714 Weather Reports


Display with metric or nautical units.
time (UTC)temp
F
wind
direction
speed
MPH
gust
MPH
rain 1hr
in
rain 24hr
in
rain mn
in
humidity
%
barometer
mb
20260509230026 74 48 4.0 9.0 0.00 0.00 0.00 22 1012.6
20260509225528 75 63 3.0 9.0 0.00 0.00 0.00 21 1012.7
20260509225024 74 53 2.0 11.0 0.00 0.00 0.00 22 1012.8
20260509224524 74 54 4.0 11.0 0.00 0.00 0.00 21 1012.6
20260509224024 75 44 3.0 10.0 0.00 0.00 0.00 20 1012.5
20260509223524 75 98 4.0 13.0 0.00 0.00 0.00 21 1012.4
20260509223025 75 56 5.0 13.0 0.00 0.00 0.00 22 1012.5
20260509222524 75 32 3.0 10.0 0.00 0.00 0.00 21 1012.4
20260509222024 76 110 4.0 11.0 0.00 0.00 0.00 22 1012.4
20260509221508 75 28 4.0 13.0 0.00 0.00 0.00 23 1012.5
20260509221008 75 41 4.0 13.0 0.00 0.00 0.00 23 1012.4
20260509220508 74 70 4.0 12.0 0.00 0.00 0.00 21 1012.5
20260509220009 75 359 6.0 14.0 0.00 0.00 0.00 22 1012.5
20260509215507 75 40 5.0 14.0 0.00 0.00 0.00 21 1012.5
20260509215007 76 29 5.0 16.0 0.00 0.00 0.00 21 1012.6
20260509214509 76 50 7.0 16.0 0.00 0.00 0.00 19 1012.5
20260509214009 77 6 4.0 11.0 0.00 0.00 0.00 20 1012.7
20260509213509 75 63 5.0 11.0 0.00 0.00 0.00 20 1012.6
20260509213033 76 51 5.0 12.0 0.00 0.00 0.00 19 1012.7
20260509212536 75 59 6.0 14.0 0.00 0.00 0.00 19 1012.7
20260509212034 76 49 7.0 13.0 0.00 0.00 0.00 19 1012.8
20260509211517 76 68 6.0 11.0 0.00 0.00 0.00 20 1012.8
20260509211018 76 24 4.0 9.0 0.00 0.00 0.00 21 1012.9
20260509210517 76 107 4.0 9.0 0.00 0.00 0.00 22 1013.0
20260509210023 77 47 6.0 9.0 0.00 0.00 0.00 19 1012.9
20260509205520 77 18 4.0 11.0 0.00 0.00 0.00 20 1013.0
20260509205023 76 46 3.0 14.0 0.00 0.00 0.00 20 1013.0
20260509204518 76 46 5.0 14.0 0.00 0.00 0.00 19 1013.1
20260509204018 76 8 1.0 10.0 0.00 0.00 0.00 21 1013.3
20260509203518 75 359 3.0 10.0 0.00 0.00 0.00 22 1013.3
20260509203019 74 72 3.0 9.0 0.00 0.00 0.00 20 1013.4
20260509202517 75 53 4.0 9.0 0.00 0.00 0.00 20 1013.5
20260509202017 74 40 3.0 8.0 0.00 0.00 0.00 21 1013.5
20260509201519 74 53 5.0 9.0 0.00 0.00 0.00 20 1013.6
20260509201019 75 31 5.0 9.0 0.00 0.00 0.00 20 1013.7
20260509200519 75 28 3.0 13.0 0.00 0.00 0.00 20 1013.7
20260509200022 76 360 4.0 13.0 0.00 0.00 0.00 20 1013.9
20260509195525 76 14 2.0 7.0 0.00 0.00 0.00 20 1013.8
20260509195020 75 354 4.0 7.0 0.00 0.00 0.00 23 1013.9
20260509194523 75 86 3.0 9.0 0.00 0.00 0.00 22 1013.9
20260509194024 74 16 3.0 11.0 0.00 0.00 0.00 22 1013.8
20260509193525 74 40 4.0 11.0 0.00 0.00 0.00 24 1013.8
20260509193033 73 103 3.0 11.0 0.00 0.00 0.00 23 1013.8
20260509192524 75 78 3.0 13.0 0.00 0.00 0.00 24 1013.9
20260509192027 75 56 5.0 13.0 0.00 0.00 0.00 20 1013.9
20260509191524 75 360 2.0 7.0 0.00 0.00 0.00 22 1014.0
20260509191022 75 360 3.0 10.0 0.00 0.00 0.00 22 1014.0
20260509190523 74 36 4.0 10.0 0.00 0.00 0.00 25 1014.0
20260509190029 74 52 5.0 10.0 0.00 0.00 0.00 22 1014.1
20260509185525 75 4 4.0 10.0 0.00 0.00 0.00 22 1014.0
20260509185025 75 1 1.0 7.0 0.00 0.00 0.00 22 1014.0
20260509184533 74 359 1.0 9.0 0.00 0.00 0.00 23 1014.1
20260509184022 74 359 4.0 9.0 0.00 0.00 0.00 23 1014.2
20260509183521 74 1 5.0 9.0 0.00 0.00 0.00 24 1014.1
20260509183006 73 26 3.0 8.0 0.00 0.00 0.00 22 1014.1
20260509182505 73 6 3.0 11.0 0.00 0.00 0.00 23 1014.1
20260509182005 73 40 3.0 11.0 0.00 0.00 0.00 25 1014.2
20260509181505 73 359 4.0 10.0 0.00 0.00 0.00 24 1014.2
20260509181005 73 18 4.0 11.0 0.00 0.00 0.00 26 1014.2
20260509180505 73 76 3.0 11.0 0.00 0.00 0.00 25 1014.2
20260509180029 74 39 3.0 8.0 0.00 0.00 0.00 24 1014.3
20260509175526 73 26 3.0 11.0 0.00 0.00 0.00 24 1014.2
20260509175029 73 89 4.0 10.0 0.00 0.00 0.00 26 1014.2
20260509174512 72 97 3.0 9.0 0.00 0.00 0.00 28 1014.2
20260509174009 72 37 5.0 11.0 0.00 0.00 0.00 26 1014.3
20260509173506 71 1 3.0 11.0 0.00 0.00 0.00 26 1014.3
20260509173005 72 8 4.0 11.0 0.00 0.00 0.00 26 1014.4
20260509172505 72 8 5.0 11.0 0.00 0.00 0.00 27 1014.4
20260509172005 72 7 4.0 11.0 0.00 0.00 0.00 28 1014.3
20260509171517 71 58 5.0 12.0 0.00 0.00 0.00 28 1014.2
20260509171009 71 46 6.0 12.0 0.00 0.00 0.00 28 1014.2
20260509170509 71 38 7.0 12.0 0.00 0.00 0.00 29 1014.2
20260509170010 71 33 5.0 10.0 0.00 0.00 0.00 30 1014.2
20260509165506 71 28 5.0 10.0 0.00 0.00 0.00 28 1014.3
20260509165006 72 30 5.0 8.0 0.00 0.00 0.00 28 1014.3
20260509164506 73 55 4.0 7.0 0.00 0.00 0.00 20 1014.2
20260509164007 73 22 3.0 8.0 0.00 0.00 0.00 20 1014.2
20260509163506 72 60 3.0 8.0 0.00 0.00 0.00 21 1014.2
20260509163009 73 47 3.0 8.0 0.00 0.00 0.00 21 1014.2
20260509162509 73 1 2.0 8.0 0.00 0.00 0.00 22 1014.2
20260509162007 72 268 1.0 5.0 0.00 0.00 0.00 22 1014.2
20260509161509 72 268 0.0 5.0 0.00 0.00 0.00 23 1014.1
20260509161008 72 308 1.0 4.0 0.00 0.00 0.00 22 1014.2
20260509160508 72 345 2.0 4.0 0.00 0.00 0.00 23 1014.1
20260509160016 72 300 1.0 5.0 0.00 0.00 0.00 24 1014.2
20260509155508 71 297 0.0 5.0 0.00 0.00 0.00 23 1014.1
20260509155010 71 283 2.0 4.0 0.00 0.00 0.00 24 1014.0
20260509154511 70 280 0.0 6.0 0.00 0.00 0.00 24 1014.0
20260509154011 70 280 2.0 6.0 0.00 0.00 0.00 25 1014.1
20260509153511 69 271 1.0 6.0 0.00 0.00 0.00 24 1014.1
20260509153010 69 272 0.0 7.0 0.00 0.00 0.00 26 1014.2
20260509152509 69 238 3.0 10.0 0.00 0.00 0.00 27 1014.2
20260509152008 69 264 5.0 10.0 0.00 0.00 0.00 27 1014.3
20260509151512 68 240 2.0 6.0 0.00 0.00 0.00 30 1014.4
20260509151010 68 257 2.0 5.0 0.00 0.00 0.00 29 1014.3
20260509150509 67 293 2.0 5.0 0.00 0.00 0.00 31 1014.3
20260509150012 66 240 0.0 6.0 0.00 0.00 0.00 38 1014.2
20260509145510 65 239 3.0 6.0 0.00 0.00 0.00 38 1014.3
20260509145008 64 238 2.0 6.0 0.00 0.00 0.00 41 1014.4
20260509144517 63 360 2.0 4.0 0.00 0.00 0.00 47 1014.4
20260509144011 62 1 0.0 3.0 0.00 0.00 0.00 47 1014.4
20260509143512 62 3 0.0 0.0 0.00 0.00 0.00 48 1014.4
20260509143014 61 4 0.0 0.0 0.00 0.00 0.00 49 1014.4
20260509142511 60 4 0.0 0.0 0.00 0.00 0.00 52 1014.4
20260509142011 58 4 0.0 0.0 0.00 0.00 0.00 56 1014.2
20260509141519 57 4 0.0 2.0 0.00 0.00 0.00 57 1014.1
20260509141010 56 4 0.0 2.0 0.00 0.00 0.00 60 1014.1
20260509140509 56 3 0.0 1.0 0.00 0.00 0.00 60 1014.1
20260509140013 55 3 0.0 5.0 0.00 0.00 0.00 61 1014.2
20260509135513 55 3 0.0 5.0 0.00 0.00 0.00 61 1014.2
20260509135014 55 1 0.0 4.0 0.00 0.00 0.00 56 1014.3
20260509134512 55 360 0.0 0.0 0.00 0.00 0.00 59 1014.2
20260509134011 54 360 0.0 0.0 0.00 0.00 0.00 60 1014.0
20260509133511 54 360 0.0 0.0 0.00 0.00 0.00 58 1014.0
20260509133011 53 360 0.0 1.0 0.00 0.00 0.00 62 1013.9
20260509132511 53 360 0.0 1.0 0.00 0.00 0.00 61 1013.9
20260509132012 53 360 0.0 0.0 0.00 0.00 0.00 63 1013.9
20260509131520 53 360 0.0 0.0 0.00 0.00 0.00 60 1013.9
20260509131017 53 360 0.0 0.0 0.00 0.00 0.00 59 1013.8
20260509130513 52 1 0.0 5.0 0.00 0.00 0.00 59 1013.6
20260509130013 52 1 0.0 5.0 0.00 0.00 0.00 59 1013.6
20260509125514 52 211 0.0 2.0 0.00 0.00 0.00 60 1013.4
20260509125013 51 209 0.0 2.0 0.00 0.00 0.00 59 1013.2
20260509124513 50 209 1.0 4.0 0.00 0.00 0.00 66 1013.2
20260509124011 50 209 2.0 4.0 0.00 0.00 0.00 66 1013.2
20260509123510 49 209 2.0 3.0 0.00 0.00 0.00 68 1013.2
20260509123015 49 209 1.0 3.0 0.00 0.00 0.00 68 1013.2
20260509122515 49 209 1.0 3.0 0.00 0.00 0.00 68 1013.0
20260509122014 49 209 1.0 3.0 0.00 0.00 0.00 67 1012.9
20260509121522 48 209 1.0 5.0 0.00 0.00 0.00 67 1012.9
20260509121013 48 209 1.0 5.0 0.00 0.00 0.00 67 1012.8
20260509120511 48 209 3.0 5.0 0.00 0.00 0.00 67 1012.7
20260509120016 49 207 3.0 4.0 0.00 0.00 0.00 62 1012.8
20260509115515 50 207 0.0 3.0 0.00 0.00 0.00 61 1012.8
20260509115015 50 207 0.0 5.0 0.00 0.00 0.00 60 1012.7
20260509114516 49 207 1.0 5.0 0.00 0.00 0.00 64 1012.6
20260509114016 47 207 3.0 5.0 0.00 0.00 0.00 69 1012.5
20260509113515 45 207 2.0 4.0 0.00 0.00 0.00 73 1012.5
20260509113013 46 207 1.0 3.0 0.00 0.00 0.00 71 1012.4
20260509112512 47 207 2.0 3.0 0.00 0.00 0.00 68 1012.4
20260509112012 49 207 0.0 2.0 0.00 0.00 0.00 68 1012.3
20260509111517 49 207 0.0 1.0 0.00 0.00 0.00 69 1012.3
20260509111017 50 207 0.0 2.0 0.00 0.00 0.00 69 1012.3
20260509110517 49 207 0.0 3.0 0.00 0.00 0.00 70 1012.4
20260509110016 50 207 1.0 5.0 0.00 0.00 0.00 70 1012.2
20260509105516 50 207 1.0 6.0 0.00 0.00 0.00 71 1012.1
20260509105015 50 209 3.0 6.0 0.00 0.00 0.00 72 1012.1
20260509104530 49 213 1.0 3.0 0.00 0.00 0.00 74 1012.2
20260509104018 48 213 0.0 3.0 0.00 0.00 0.00 76 1012.3
20260509103518 47 214 0.0 4.0 0.00 0.00 0.00 78 1012.2
20260509103021 46 214 0.0 4.0 0.00 0.00 0.00 78 1012.1
20260509102523 46 214 1.0 2.0 0.00 0.00 0.00 75 1012.2
20260509102019 47 214 1.0 2.0 0.00 0.00 0.00 72 1012.1
20260509101520 48 214 0.0 0.0 0.00 0.00 0.00 72 1012.1
20260509101018 49 214 0.0 0.0 0.00 0.00 0.00 72 1012.2
20260509100517 49 214 0.0 0.0 0.00 0.00 0.00 72 1012.3
20260509100030 49 214 0.0 2.0 0.00 0.00 0.00 72 1012.4
20260509095525 49 214 0.0 3.0 0.00 0.00 0.00 71 1012.5
20260509095020 49 214 0.0 3.0 0.00 0.00 0.00 71 1012.3
20260509094523 49 214 0.0 1.0 0.00 0.00 0.00 71 1012.3
20260509094020 50 214 0.0 0.0 0.00 0.00 0.00 70 1012.4
20260509093520 50 214 0.0 0.0 0.00 0.00 0.00 70 1012.3
20260509093020 50 214 0.0 0.0 0.00 0.00 0.00 70 1012.3
20260509092518 50 214 0.0 0.0 0.00 0.00 0.00 69 1012.2
20260509092018 50 214 0.0 0.0 0.00 0.00 0.00 69 1012.2
20260509091522 51 214 0.0 0.0 0.00 0.00 0.00 68 1012.1
20260509091022 51 214 0.0 1.0 0.00 0.00 0.00 67 1012.0
20260509090522 51 214 0.0 2.0 0.00 0.00 0.00 66 1012.1
20260509090023 52 214 0.0 3.0 0.00 0.00 0.00 66 1012.1
20260509085522 52 214 0.0 3.0 0.00 0.00 0.00 66 1012.1
20260509085024 52 214 2.0 5.0 0.00 0.00 0.00 66 1012.1
20260509084511 52 214 2.0 5.0 0.00 0.00 0.00 65 1012.0
20260509084007 53 215 3.0 5.0 0.00 0.00 0.00 65 1012.0
20260509083505 53 215 2.0 5.0 0.00 0.00 0.00 65 1012.0
20260509083004 53 218 4.0 8.0 0.00 0.00 0.00 66 1012.1
20260509082507 52 217 4.0 8.0 0.00 0.00 0.00 68 1012.1
20260509082004 51 219 3.0 5.0 0.00 0.00 0.00 70 1012.1
20260509081508 50 217 2.0 3.0 0.00 0.00 0.00 69 1012.1
20260509081005 50 217 1.0 3.0 0.00 0.00 0.00 68 1012.1
20260509080504 51 217 1.0 3.0 0.00 0.00 0.00 68 1012.2
20260509080010 51 217 1.0 3.0 0.00 0.00 0.00 68 1012.2
20260509075512 51 217 1.0 3.0 0.00 0.00 0.00 67 1012.2
20260509075009 51 217 0.0 3.0 0.00 0.00 0.00 66 1012.3
20260509074509 52 217 1.0 2.0 0.00 0.00 0.00 65 1012.3
20260509074007 52 217 1.0 3.0 0.00 0.00 0.00 64 1012.5
20260509073506 53 217 1.0 3.0 0.00 0.00 0.00 63 1012.5
20260509073010 53 217 2.0 3.0 0.00 0.00 0.00 62 1012.6
20260509072510 54 217 0.0 3.0 0.00 0.00 0.00 61 1012.6
20260509072008 54 217 0.0 3.0 0.00 0.00 0.00 62 1012.5
20260509071516 54 218 0.0 5.0 0.00 0.00 0.00 62 1012.6
20260509071009 54 217 1.0 6.0 0.00 0.00 0.00 61 1012.6
20260509070509 54 217 2.0 6.0 0.00 0.00 0.00 60 1012.5
20260509070010 54 278 2.0 4.0 0.00 0.00 0.00 59 1012.4
20260509065515 55 278 0.0 3.0 0.00 0.00 0.00 58 1012.7
20260509065008 56 278 1.0 5.0 0.00 0.00 0.00 57 1012.7
20260509064513 56 276 2.0 7.0 0.00 0.00 0.00 56 1012.7
20260509064011 56 196 3.0 7.0 0.00 0.00 0.00 56 1012.5
20260509063511 56 176 3.0 7.0 0.00 0.00 0.00 55 1012.5
20260509063014 56 191 4.0 7.0 0.00 0.00 0.00 56 1012.5
20260509062517 56 186 3.0 9.0 0.00 0.00 0.00 56 1012.5
20260509062012 56 176 4.0 9.0 0.00 0.00 0.00 56 1012.6
20260509061515 56 188 3.0 7.0 0.00 0.00 0.00 56 1012.7
20260509061016 56 184 2.0 6.0 0.00 0.00 0.00 55 1012.7
20260509060512 57 183 2.0 7.0 0.00 0.00 0.00 55 1012.8
20260509060015 57 185 3.0 7.0 0.00 0.00 0.00 54 1012.8
20260509055513 57 178 3.0 7.0 0.00 0.00 0.00 54 1013.0
20260509055015 57 167 4.0 7.0 0.00 0.00 0.00 54 1013.0
20260509054519 57 167 2.0 5.0 0.00 0.00 0.00 54 1013.0
20260509054011 57 158 2.0 4.0 0.00 0.00 0.00 54 1013.0
20260509053511 57 158 1.0 6.0 0.00 0.00 0.00 54 1013.2
20260509053014 57 157 2.0 6.0 0.00 0.00 0.00 53 1013.2
20260509052514 57 157 2.0 6.0 0.00 0.00 0.00 54 1013.2
20260509052016 57 160 3.0 6.0 0.00 0.00 0.00 54 1013.2
20260509051517 57 146 2.0 5.0 0.00 0.00 0.00 54 1013.4
20260509051012 57 153 2.0 6.0 0.00 0.00 0.00 54 1013.4
20260509050512 57 171 2.0 6.0 0.00 0.00 0.00 53 1013.5
20260509050014 57 146 2.0 7.0 0.00 0.00 0.00 53 1013.6
20260509045510 57 167 3.0 7.0 0.00 0.00 0.00 53 1013.7
20260509045010 57 165 3.0 6.0 0.00 0.00 0.00 53 1013.9
20260509044515 57 155 2.0 6.0 0.00 0.00 0.00 53 1013.9
20260509044014 57 163 1.0 5.0 0.00 0.00 0.00 54 1013.9
20260509043515 57 162 1.0 3.0 0.00 0.00 0.00 54 1014.1
20260509043012 57 162 1.0 4.0 0.00 0.00 0.00 54 1014.2
20260509042513 57 162 0.0 5.0 0.00 0.00 0.00 54 1014.2
20260509042011 57 162 1.0 5.0 0.00 0.00 0.00 53 1014.4
20260509041515 57 161 0.0 5.0 0.00 0.00 0.00 53 1014.5
20260509041015 58 162 1.0 5.0 0.00 0.00 0.00 53 1014.6
20260509040514 58 162 2.0 5.0 0.00 0.00 0.00 52 1014.6
20260509040017 58 166 1.0 5.0 0.00 0.00 0.00 52 1014.6
20260509035515 58 117 1.0 4.0 0.00 0.00 0.00 51 1014.6
20260509035015 58 115 1.0 4.0 0.00 0.00 0.00 51 1014.6
20260509034515 58 112 1.0 3.0 0.00 0.00 0.00 52 1014.5
20260509034012 58 111 1.0 3.0 0.00 0.00 0.00 52 1014.5
20260509033512 58 110 1.0 3.0 0.00 0.00 0.00 52 1014.5
20260509033016 58 110 0.0 3.0 0.00 0.00 0.00 51 1014.5
20260509032520 58 110 1.0 2.0 0.00 0.00 0.00 51 1014.5
20260509032016 59 110 0.0 4.0 0.00 0.00 0.00 50 1014.5
20260509031512 59 110 1.0 4.0 0.00 0.00 0.00 50 1014.4
20260509031012 59 109 3.0 4.0 0.00 0.00 0.00 49 1014.4
20260509030512 59 107 1.0 4.0 0.00 0.00 0.00 48 1014.4
20260509030018 60 106 1.0 4.0 0.00 0.00 0.00 48 1014.3
20260509025517 60 106 2.0 4.0 0.00 0.00 0.00 48 1014.2
20260509025017 60 106 2.0 4.0 0.00 0.00 0.00 47 1014.2
20260509024516 61 106 1.0 3.0 0.00 0.00 0.00 46 1014.2
20260509024020 61 106 2.0 3.0 0.00 0.00 0.00 46 1014.1
20260509023520 61 106 2.0 5.0 0.00 0.00 0.00 45 1014.1
20260509023018 61 106 2.0 5.0 0.00 0.00 0.00 45 1014.1
20260509022516 61 106 2.0 4.0 0.00 0.00 0.00 45 1014.0
20260509022016 62 106 3.0 5.0 0.00 0.00 0.00 45 1014.0
20260509021521 62 106 3.0 5.0 0.00 0.00 0.00 44 1014.0
20260509021019 62 106 2.0 5.0 0.00 0.00 0.00 44 1013.9
20260509020520 63 106 3.0 5.0 0.00 0.00 0.00 43 1013.9
20260509020017 63 108 3.0 5.0 0.00 0.00 0.00 42 1013.9
20260509015517 63 108 3.0 7.0 0.00 0.00 0.00 42 1013.7
20260509015017 63 108 4.0 7.0 0.00 0.00 0.00 41 1013.7
20260509014515 64 101 3.0 7.0 0.00 0.00 0.00 41 1013.7
20260509014015 64 98 2.0 6.0 0.00 0.00 0.00 41 1013.6
20260509013517 64 98 3.0 4.0 0.00 0.00 0.00 40 1013.6
20260509013034 65 97 2.0 5.0 0.00 0.00 0.00 40 1013.6
20260509012518 65 97 2.0 5.0 0.00 0.00 0.00 39 1013.5
20260509012018 65 97 2.0 4.0 0.00 0.00 0.00 38 1013.6
20260509011517 66 97 1.0 6.0 0.00 0.00 0.00 37 1013.6
20260509011018 66 96 3.0 7.0 0.00 0.00 0.00 38 1013.5
20260509010516 67 99 2.0 7.0 0.00 0.00 0.00 38 1013.6
20260509010021 67 58 1.0 6.0 0.00 0.00 0.00 36 1013.6
20260509005521 67 110 3.0 5.0 0.00 0.00 0.00 36 1013.5
20260509005020 67 98 3.0 5.0 0.00 0.00 0.00 38 1013.6
20260509004523 67 96 2.0 6.0 0.00 0.00 0.00 37 1013.5
20260509004019 67 96 1.0 6.0 0.00 0.00 0.00 36 1013.5
20260509003520 67 94 3.0 6.0 0.00 0.00 0.00 36 1013.4
20260509003021 67 95 3.0 8.0 0.00 0.00 0.00 36 1013.5
20260509002520 68 92 3.0 8.0 0.00 0.00 0.00 36 1013.5
20260509002020 68 117 3.0 7.0 0.00 0.00 0.00 36 1013.6
20260509001523 68 86 1.0 5.0 0.00 0.00 0.00 35 1013.5
20260509001023 68 83 3.0 9.0 0.00 0.00 0.00 36 1013.6
20260509000522 68 95 4.0 9.0 0.00 0.00 0.00 35 1013.5
20260509000023 69 142 1.0 5.0 0.00 0.00 0.00 36 1013.5
20260508235522 68 131 2.0 6.0 0.00 0.00 0.00 36 1013.6
20260508235121 68 134 2.0 7.0 0.00 0.00 0.00 36 1013.6
20260508234507 68 110 4.0 9.0 0.00 0.00 0.00 36 1013.6
20260508234005 68 93 6.0 9.0 0.00 0.00 0.00 37 1013.6
20260508233505 68 89 2.0 9.0 0.00 0.00 0.00 37 1013.6
20260508233006 68 103 5.0 8.0 0.00 0.00 0.00 35 1013.7
20260508232505 68 36 4.0 8.0 0.00 0.00 0.00 37 1013.7
20260508232005 68 103 4.0 8.0 0.00 0.00 0.00 36 1013.7
20260508231525 68 130 3.0 8.0 0.00 0.00 0.00 35 1013.7
20260508231025 68 103 5.0 10.0 0.00 0.00 0.00 36 1013.6
20260508230524 69 92 4.0 11.0 0.00 0.00 0.00 38 1013.6